Overview Statistics Trail Chart Weather Telemetry Raw packets
 

This is the latest recevied weather packets stored in our database for station/object WW6Q. If no packets are shown the sender has not sent any weather packets the latest 10 day(s).

<< 52 53 54 55 56 57 58 >>
Time Temp. Humidity Pressure Rain* Wind** Luminosity Snow
1788271620 25.56° C 81% 1015.6 hPa 0 mm - 188 W/m² -
1788271318 25.56° C 81% 1015.4 hPa 0 mm - 176 W/m² -
1788271014 25.56° C 82% 1015.5 hPa 0 mm - 173 W/m² -
1788270708 25.56° C 82% 1015.5 hPa 0 mm - 149 W/m² -
1788270404 25.56° C 81% 1015.5 hPa 0 mm - 122 W/m² -
1788270099 25° C 82% 1015.3 hPa 0 mm - 92 W/m² -
1788269798 25.56° C 80% 1015.1 hPa 0 mm - 72 W/m² -
1788269497 25.56° C 81% 1015.2 hPa 0 mm - 79 W/m² -
1788269192 25.56° C 80% 1015.4 hPa 0 mm - 77 W/m² -
1788268891 25° C 80% 1015.2 hPa 0 mm - 89 W/m² -
1788268586 25° C 81% 1015.7 hPa 0 mm - 129 W/m² -
1788268286 25° C 80% 1015.9 hPa 0 mm - 122 W/m² -
1788267981 25.56° C 80% 1015.8 hPa 0 mm - 109 W/m² -
1788267680 25.56° C 79% 1015.9 hPa 0 mm - 96 W/m² -
1788267378 25.56° C 78% 1015.9 hPa 0 mm - 101 W/m² -
1788267074 25.56° C 78% 1016 hPa 0 mm - 161 W/m² -
1788266774 24.44° C 83% 1016 hPa 0 mm - 147 W/m² -
1788266469 24.44° C 83% 1015.9 hPa 0 mm - 169 W/m² -
1788266169 23.89° C 85% 1015.8 hPa 0 mm - 97 W/m² -
1788265868 23.89° C 87% 1015.8 hPa 0 mm - 76 W/m² -
1788265567 22.78° C 89% 1015.5 hPa 0 mm - 76 W/m² -
1788265267 22.78° C 89% 1015.5 hPa 0 mm - 62 W/m² -
1788264962 22.22° C 91% 1015.3 hPa 0 mm - 68 W/m² -
1788264657 22.22° C 90% 1015.6 hPa 0 mm - 65 W/m² -
1788264356 22.22° C 91% 1015.4 hPa 0 mm - 46 W/m² -

* Rain latest hour (hover to see other rain measurements)
** Current wind speed in m/s (hover to see current wind gust speed)